CW1661 Weather Reports


Display with metric or nautical units.
time (UTC)temp
F
wind
direction
speed
MPH
gust
MPH
rain 1hr
in
rain 24hr
in
rain mn
in
humidity
%
barometer
mb
20260505022220 75 0.0 0.0 0.00 0.00 0.00 55 1006.7
20260505021219 75 0.0 0.0 0.00 0.00 0.00 52 1006.7
20260505020351 76 0.0 0.0 0.00 0.00 0.00 51 1006.7
20260505015219 76 0.0 0.0 0.00 0.00 0.00 51 1006.5
20260505014219 76 0.0 0.0 0.00 0.00 0.00 49 1006.4
20260505013220 77 0.0 0.0 0.00 0.00 0.00 51 1006.6
20260505012220 77 0.0 0.0 0.00 0.00 0.00 49 1006.7
20260505011219 78 0.0 0.0 0.00 0.00 0.00 46 1006.6
20260505010219 78 0.0 0.0 0.00 0.00 0.00 46 1006.8
20260505005243 79 0.0 0.0 0.00 0.00 0.00 44 1007.0
20260505004219 80 0.0 0.0 0.00 0.00 0.00 41 1006.8
20260505003219 81 0.0 0.0 0.00 0.00 0.00 42 1006.9
20260505002220 82 0.0 0.0 0.00 0.00 0.00 40 1006.8
20260505001220 82 0.0 0.0 0.00 0.00 0.00 40 1006.9
20260505000220 82 0.0 0.0 0.00 0.00 0.00 42 1007.1
20260504235219 83 0.0 0.0 0.00 0.00 0.00 42 1007.1
20260504234219 82 0.0 0.0 0.00 0.00 0.00 38 1007.2
20260504233219 81 0.0 0.0 0.00 0.00 0.00 43 1007.3
20260504232219 81 0.0 0.0 0.00 0.00 0.00 39 1007.1
20260504231219 83 0.0 0.0 0.00 0.00 0.00 41 1007.1
20260504230242 82 0.0 0.0 0.00 0.00 0.00 44 1007.2
20260504225219 82 0.0 0.0 0.00 0.00 0.00 43 1007.2
20260504224219 82 0.0 0.0 0.00 0.00 0.00 43 1007.3
20260504223219 82 0.0 0.0 0.00 0.00 0.00 41 1007.4
20260504222219 82 0.0 0.0 0.00 0.00 0.00 41 1007.7
20260504221219 82 0.0 0.0 0.00 0.00 0.00 42 1007.8
20260504220242 82 0.0 0.0 0.00 0.00 0.00 41 1008.0
20260504215219 82 0.0 0.0 0.00 0.00 0.00 43 1007.9
20260504214243 82 0.0 0.0 0.00 0.00 0.00 40 1007.8
20260504213219 81 0.0 0.0 0.00 0.00 0.00 46 1008.0
20260504212219 81 0.0 0.0 0.00 0.00 0.00 42 1008.2
20260504211219 81 0.0 0.0 0.00 0.00 0.00 43 1008.1
20260504210219 81 0.0 0.0 0.00 0.00 0.00 44 1008.1
20260504205219 81 0.0 0.0 0.00 0.00 0.00 45 1008.3
20260504204219 82 0.0 0.0 0.00 0.00 0.00 44 1008.2
20260504203219 82 0.0 0.0 0.00 0.00 0.00 41 1008.2
20260504202219 81 0.0 0.0 0.00 0.00 0.00 44 1008.2
20260504201219 80 0.0 0.0 0.00 0.00 0.00 46 1008.4
20260504200219 79 0.0 0.0 0.00 0.00 0.00 46 1008.4
20260504195219 78 0.0 0.0 0.00 0.00 0.00 45 1008.4
20260504194219 78 0.0 0.0 0.00 0.00 0.00 47 1008.4
20260504193219 78 0.0 0.0 0.00 0.00 0.00 49 1008.4
20260504192219 78 0.0 0.0 0.00 0.00 0.00 53 1008.4
20260504191219 78 0.0 0.0 0.00 0.00 0.00 48 1008.6
20260504190219 78 0.0 0.0 0.00 0.00 0.00 48 1008.5
20260504185242 78 0.0 0.0 0.00 0.00 0.00 55 1008.7
20260504184242 78 0.0 0.0 0.00 0.00 0.00 52 1008.8
20260504183219 77 0.0 0.0 0.00 0.00 0.00 50 1008.8
20260504182219 77 0.0 0.0 0.00 0.00 0.00 49 1008.8
20260504181219 76 0.0 0.0 0.00 0.00 0.00 48 1008.8
20260504180219 75 0.0 0.0 0.00 0.00 0.00 51 1008.8
20260504175219 75 0.0 0.0 0.00 0.00 0.00 54 1008.7
20260504174220 75 0.0 0.0 0.00 0.00 0.00 55 1008.7
20260504173219 74 0.0 0.0 0.00 0.00 0.00 58 1008.7
20260504172219 73 0.0 0.0 0.00 0.00 0.00 57 1009.0
20260504171219 72 0.0 0.0 0.00 0.00 0.00 58 1008.8
20260504170219 72 0.0 0.0 0.00 0.00 0.00 60 1008.8
20260504160219 62 0.0 0.0 0.00 0.00 0.00 80 1008.6
20260504150218 53 0.0 0.0 0.00 0.00 0.00 92 1008.1
20260504141242 50 0.0 0.0 0.00 0.00 0.00 92 1008.2
20260504140218 49 0.0 0.0 0.00 0.00 0.00 91 1008.1
20260504130218 49 0.0 0.0 0.00 0.00 0.00 90 1007.5
20260504120218 50 0.0 0.0 0.00 0.00 0.00 90 1007.6
20260504110220 50 0.0 0.0 0.00 0.00 0.00 89 1007.6
20260504100307 51 0.0 0.0 0.00 0.00 0.00 88 1007.4
20260504081220 53 0.0 0.0 0.00 0.00 0.00 85 1007.3
20260504080220 54 0.0 0.0 0.00 0.00 0.00 85 1007.3
20260504070220 56 0.0 0.0 0.00 0.00 0.00 83 1007.4
20260504060220 58 0.0 0.0 0.00 0.00 0.00 80 1007.5
20260504050220 61 0.0 0.0 0.00 0.00 0.00 76 1007.3
20260504045243 62 0.0 0.0 0.00 0.00 0.00 76 1007.3
20260504044220 63 0.0 0.0 0.00 0.00 0.00 75 1007.3
20260504043243 63 0.0 0.0 0.00 0.00 0.00 75 1007.3
20260504042220 64 0.0 0.0 0.00 0.00 0.00 74 1007.2
20260504041220 65 0.0 0.0 0.00 0.00 0.00 73 1007.2
20260504040219 66 0.0 0.0 0.00 0.00 0.00 73 1007.0
20260504035220 67 0.0 0.0 0.00 0.00 0.00 71 1006.9
20260504034220 68 0.0 0.0 0.00 0.00 0.00 71 1007.0
20260504033220 69 0.0 0.0 0.00 0.00 0.00 69 1007.0
20260504032220 70 0.0 0.0 0.00 0.00 0.00 68 1006.9
20260504031219 71 0.0 0.0 0.00 0.00 0.00 64 1006.9
20260504030219 73 0.0 0.0 0.00 0.00 0.00 62 1006.9
20260504025219 74 0.0 0.0 0.00 0.00 0.00 59 1006.9
20260504024220 74 0.0 0.0 0.00 0.00 0.00 57 1006.7
20260504023219 75 0.0 0.0 0.00 0.00 0.00 54 1006.8